星链-5767 (STARLINK-5767 )

导读

STARLINK-5767是美国SpaceX公司星链星座的卫星,于2023年2月12日发射升空,作为星链项目的一部分,它主要为全球提供高速互联网服务,尤其覆盖偏远地区等网络基础设施薄弱区域,该卫星的入轨进一步扩充了星链星座的规模,提升了系统的服务能力与覆盖稳定性。

Basic Information
目录编号:
55586
目录名称:
STARLINK-5767
国际标识:
2023-020T
轨道中心:
EARTH
卫星名称:
星链-5767
卫星全名:
星链-5767 (STARLINK-5767 )
卫星状态:
在轨 (已飞行1308 天)
发射日期:
2023-02-12 UTC
国别 :
美国 (US)
星等 :
--
This satellite is enrolled in the Space Conjunction Data Service (SCDS) and the current flight risk assessment level is: No High Risk
Orbit Information
数据来源 国际轨道数据
星历时间: 2026-09-12T00:05:37+0800
1天前
查看轨道信息
半长轴: 6861.196km
偏心率: 0.0002055
轨道倾角: 43.003°
近地点辐角 258.642°
升交点赤经 35.097°
平近点角 101.420°
近地点: 481.649km
远地点: 484.469km
周期: 94.267分钟
每日圈数: 15.275768
Detailed Information
固有亮度:
5
最大亮度:
2.5
卫星平台:
Starlink v1.5
覆盖范围:
全球
运营商:
太空探索技术公司
运营商所在国:
美国
制造商(研发单位):
太空探索技术公司
制造商所在国:
美国
使用方式:
暂无
Satellite Introduction
星链(Starlink)计划是由太空探索技术公司(SpaceX)提出的一个巨型低轨卫星互联网星座项目,计划在2019年至2024年间在太空搭建由约1.2万颗卫星组成的“星链”网络,其中1584颗将部署在地球上空550千米处的近地轨道,并从2020年开始工作。该卫星仍在工作。
2D Orbit Map
3D Orbit Map
Orbit Altitude Analysis Chart
Orbit Inclination Analysis Chart
Orbit Comprehensive Analysis Chart
View Comprehensive Chart
Conjunction Data List
Event ID Objects TCA Miss Dist (km) Collision Risk Probability Collision Risk Index (CRI) Action
CDM_260914-215905-558606-219521
2026-09-14T
21:59:47+0000
0.252 km
中距离
4.904834E-4 高风险 0.89
CDM_260914-202505-558606-219521
2026-09-14T
20:25:38+0000
2.030 km
极远距离
1.827762E-6 低风险 0.4
CDM_260914-233305-558606-219521
2026-09-14T
23:33:56+0000
2.541 km
极远距离
1.16002E-6 低风险 0.36
Miss Distance Evolution Trend with All Objects
Collision Probability Evolution Trend with All Objects